STARLINK-34497, 64696

Orbit data source: Space-Track

STARLINK-34497, 64696 is a payload satellite owned by SpaceX/Seattle (US) in LEO that was launched on Sat, 28 Jun 2025 UTC via an FALCON 9 launch vehicle from the Air Force Western Test Range (AFWTR). Payload-class satellites include a variety of spacecraft equipped with specific instruments for various scientific and technological missions. These include communications satellites like Starlink; space stations such as the ISS; scientific satellites like the Hubble; Earth observation satellites from companies like Planet Labs, Umbra, and HawkEye 360; GPS; miniature CubeSats for education and research; and military/defense satellites.

Loading next visibility...
Identifier
64696, 2025-142A
Orbit
LEO
Country
Flag of USUS
Related business
Manufacturer
SpaceX/Seattle
Mission
Operational Commercial Communications
Bus & Motor
STARLINK V2MO, Unknown motor
Mass
575 kg wet, ~530 kg dry
Launch date (UTC)
2025-06-28 (1 year ago)
Launch vehicle
FALCON 9
Launch site
Air Force Western Test Range (AFWTR)
Object type
Payload
Rocket body
Debris
Shape & HBR
Box + 1 Pan, 17.7 m
Radar Cross Section
41.120 m², Large (>1 m²)

Expand to show TLE details & history
Last TLE update: 16 hours ago

TLE from 16 hours ago
0 STARLINK-34497
1 64696U 25142A   26264.01754914  .00016173  00000-0  56560-3 0  9999
2 64696  69.9995 179.7936 0002181 270.3081  89.7844 15.29595385 68955
Epoch: 2026-09-21T00:25Z
TLE epoch observation values (Epoch: 2026-09-21T00:25:16.245Z)
Latitude
-0.00006°
Longitude
173.57248°
Altitude
479.473 km
Speed
7.626 km/s
True Right ascension
11h 59m 10s
True Declination
0° 00' 00"
Sunlit
Object was in daylight at epoch
Visualization orbit readout
Latitude
Unknown
Longitude
Unknown
Altitude
Unknown
Speed
Unknown
Apparent Right ascension
Unknown
Apparent Declination
Unknown
Sunlit
N/A
Visualization observer readout
Local Sidereal Time
09:56:57
Azimuth
Unknown
Elevation
Unknown
Doppler factor
Unknown
Orbital elements
Apogee altitude
476.435 km
Perigee altitude
473.446 km
Semi-major axis
6,853.078 km
Eccentricity
0.00022
Inclination
69.9995°
RAAN
179.7936°
Arg. of periapsis
270.3081°
True anomaly
89.80939°
Mean anomaly
89.7844°
Eccentric anomaly
89.7969°
Mean motion
3.82573 °/min
Orbital period
94.1 mins
BSTAR
0.0005656
Loading maneuver chart data...
Computing Atmospheric mass density...
Loading historical data...
Loading historical data...
Loading historical data...
Loading historical data...
Loading historical data...
Loading historical data...
Loading historical data...

Documentation

Showing up to 5 results
|